Location: Central Falls
(41.8900°N, 71.3929°W)
Time: 08:21:09
(UTC+00:00)

Tiros 1 despin weight - Pass Details

Date: 10 December 2023
Orbit: 581 x 624 km, 48.2° (Epoch: 29 February)

Event Time Altitude Azimuth Distance (km) Brightness Sun altitude
Rises 21:36:26 0° 255° (WSW) 2,816 ? -4.4°
Reaches altitude 10° 21:38:45 10° 260° (W) 1,910 ? -4.8°
Maximum altitude 21:43:03 57° 339° (NNW) 689 ? -5.5°
Drops below altitude 10° 21:47:21 10° 59° (ENE) 1,899 ? -6.2°
Enters shadow 21:47:49 - 60° (ENE) 2,081 ? -6.3°
Sets 21:49:39 0° 64° (ENE) 2,798 - -6.6°
